Everett-Stewart Regional Airp, TN

1:28 AM CDT on March 23, 2017 (GMT -0500)
Everett-Stewart

Weather History for KUCY - March, 2014

Change the Weather History Date:

Saturday, March 1, 2014

  Actual Average (KDYR) Record (KDYR)
Temperature  
Mean Temperature 46 °F -  
Max Temperature 53 °F 51 °F 77 °F (2006)
Min Temperature 39 °F 36 °F 24 °F (2009)
Degree Days  
Heating Degree Days 19    
Moisture  
Dew Point 38 °F    
Average Humidity 71    
Maximum Humidity 93    
Minimum Humidity 54    
Precipitation  
Precipitation 0.00 in - - ()
Sea Level Pressure  
Sea Level Pressure 30.09 in    
Wind  
Wind Speed 3 mph (East)    
Max Wind Speed 6 mph    
Max Gust Speed -    
Visibility 10 miles    
Events      
Averages and records for this station are not official NWS values.
T = Trace of Precipitation, MM = Missing Value Source: NWS Daily Summary

Daily Weather History Graph

Daily Weather History Graph

Search for Another Location

Airport or City:

Trip Planner

Search our weather history database for the weather conditions in past years. The results will help you decide how hot, cold, wet, or windy it might be!

Date:

Astronomy

Mar. 01, 2014 Rise Set
Actual Time 6:26 AM CST 5:50 PM CST
Civil Twilight 6:00 AM CST 6:16 PM CST
Nautical Twilight 5:30 AM CST 6:46 PM CST
Astronomical Twilight 5:00 AM CST 7:16 PM CST
Moon 6:21 AM CST (3/1) 6:35 PM CST (3/1)
Length of Visible Light 12h 16m
Length of Day
11h 24m
New Moon, 0% of the Moon is Illuminated
Mar 1
New Moon
Mar 8
First Quarter
Mar 16
Full
Mar 23
Last Quarter
Mar 30
New

Hourly Weather History & Observations

Time (CST) Temp. Windchill Dew Point Humidity Pressure Visibility Wind Dir Wind Speed Gust Speed Precip Events Conditions
12:15 AM 41.0 °F 37.1 °F 35.6 °F 81% 30.06 in 10.0 mi SSE 5.8 mph - N/A   Overcast
12:35 AM 41.0 °F 37.1 °F 35.6 °F 81% 30.07 in 10.0 mi SSE 5.8 mph - N/A   Overcast
12:55 AM 41.0 °F 37.1 °F 35.6 °F 81% 30.07 in 10.0 mi SSE 5.8 mph - N/A   Overcast
1:15 AM 41.0 °F 38.0 °F 35.6 °F 81% 30.06 in 10.0 mi SE 4.6 mph - N/A   Overcast
1:35 AM 41.0 °F 39.0 °F 35.6 °F 81% 30.06 in 10.0 mi SE 3.5 mph - N/A   Overcast
1:55 AM 41.0 °F - 35.6 °F 81% 30.06 in 10.0 mi Calm Calm - N/A   Overcast
2:15 AM 41.0 °F - 35.6 °F 81% 30.06 in 10.0 mi Calm Calm - N/A   Overcast
2:35 AM 41.0 °F - 35.6 °F 81% 30.06 in 10.0 mi Calm Calm - N/A   Overcast
2:55 AM 41.0 °F - 35.6 °F 81% 30.05 in 10.0 mi Calm Calm - N/A   Overcast
3:15 AM 41.0 °F - 35.6 °F 81% 30.05 in 10.0 mi Calm Calm - N/A   Overcast
3:35 AM 41.0 °F - 35.6 °F 81% 30.06 in 10.0 mi Calm Calm - N/A   Overcast
3:55 AM 41.0 °F - 35.6 °F 81% 30.06 in 10.0 mi Calm Calm - N/A   Overcast
4:15 AM 41.0 °F - 35.6 °F 81% 30.06 in 10.0 mi Calm Calm - N/A   Overcast
4:35 AM 41.0 °F 39.0 °F 35.6 °F 81% 30.06 in 10.0 mi East 3.5 mph - N/A   Overcast
4:55 AM 41.0 °F - 35.6 °F 81% 30.07 in 10.0 mi Calm Calm - N/A   Overcast
5:15 AM 41.0 °F - 35.6 °F 81% 30.08 in 10.0 mi Calm Calm - N/A   Overcast
5:35 AM 41.0 °F - 35.6 °F 81% 30.09 in 10.0 mi Calm Calm - N/A   Overcast
5:55 AM 39.2 °F - 35.6 °F 87% 30.10 in 10.0 mi Calm Calm - N/A   Overcast
6:15 AM 39.2 °F - 35.6 °F 87% 30.10 in 10.0 mi Calm Calm - N/A   Overcast
6:35 AM 39.2 °F - 35.6 °F 87% 30.10 in 10.0 mi Calm Calm - N/A   Overcast
6:55 AM 39.2 °F - 35.6 °F 87% 30.11 in 10.0 mi Calm Calm - N/A   Overcast
7:15 AM 39.2 °F - 37.4 °F 93% 30.11 in 10.0 mi Calm Calm - N/A   Overcast
7:35 AM 41.0 °F - 35.6 °F 81% 30.12 in 10.0 mi Calm Calm - N/A   Overcast
7:55 AM 42.8 °F 41.1 °F 35.6 °F 76% 30.12 in 10.0 mi ESE 3.5 mph - N/A   Overcast
8:15 AM 42.8 °F 40.1 °F 37.4 °F 81% 30.13 in 10.0 mi SE 4.6 mph - N/A   Overcast
8:35 AM 44.6 °F 42.2 °F 37.4 °F 76% 30.13 in 10.0 mi SSE 4.6 mph - N/A   Overcast
8:55 AM 44.6 °F 42.2 °F 37.4 °F 76% 30.14 in 10.0 mi SSE 4.6 mph - N/A   Overcast
9:15 AM 46.4 °F 44.3 °F 37.4 °F 71% 30.14 in 10.0 mi South 4.6 mph - N/A   Overcast
9:35 AM 46.4 °F 45.2 °F 37.4 °F 71% 30.15 in 10.0 mi SSW 3.5 mph - N/A   Overcast
9:55 AM 46.4 °F - 37.4 °F 71% 30.15 in 10.0 mi Calm Calm - N/A   Overcast
10:15 AM 46.4 °F - 37.4 °F 71% 30.14 in 10.0 mi Calm Calm - N/A   Overcast
10:35 AM 48.2 °F - 37.4 °F 66% 30.15 in 10.0 mi South 3.5 mph - N/A   Overcast
10:55 AM 48.2 °F - 37.4 °F 66% 30.14 in 10.0 mi Calm Calm - N/A   Overcast
11:15 AM 48.2 °F - 37.4 °F 66% 30.15 in 10.0 mi SW 4.6 mph - N/A   Overcast
11:35 AM 50.0 °F - 37.4 °F 62% 30.14 in 10.0 mi Calm Calm - N/A   Overcast
11:55 AM 50.0 °F - 37.4 °F 62% 30.13 in 10.0 mi Variable 3.5 mph - N/A   Overcast
12:15 PM 50.0 °F - 37.4 °F 62% 30.13 in 10.0 mi Calm Calm - N/A   Overcast
12:35 PM 51.8 °F - 37.4 °F 58% 30.14 in 10.0 mi Calm Calm - N/A   Overcast
12:55 PM 50.0 °F - 37.4 °F 62% 30.13 in 10.0 mi Calm Calm - N/A   Overcast
1:15 PM 51.8 °F - 37.4 °F 58% 30.12 in 10.0 mi Calm Calm - N/A   Overcast
1:35 PM 51.8 °F - 37.4 °F 58% 30.11 in 10.0 mi Calm Calm - N/A   Overcast
1:55 PM 51.8 °F - 37.4 °F 58% 30.11 in 10.0 mi Calm Calm - N/A   Overcast
2:15 PM 51.8 °F - 37.4 °F 58% 30.09 in 10.0 mi Calm Calm - N/A   Overcast
2:35 PM 53.6 °F - 37.4 °F 54% 30.08 in 10.0 mi ESE 4.6 mph - N/A   Mostly Cloudy
2:55 PM 53.6 °F - 37.4 °F 54% 30.09 in 10.0 mi SSE 4.6 mph - N/A   Mostly Cloudy
3:15 PM 53.6 °F - 37.4 °F 54% 30.09 in 10.0 mi SSE 3.5 mph - N/A   Overcast
3:35 PM 53.6 °F - 39.2 °F 58% 30.09 in 10.0 mi SSE 4.6 mph - N/A   Overcast
3:55 PM 53.6 °F - 39.2 °F 58% 30.09 in 10.0 mi Calm Calm - N/A   Overcast
4:15 PM 53.6 °F - 39.2 °F 58% 30.09 in 10.0 mi Calm Calm - N/A   Overcast
4:35 PM 53.6 °F - 39.2 °F 58% 30.09 in 10.0 mi Calm Calm - N/A   Overcast
4:55 PM 53.6 °F - 39.2 °F 58% 30.09 in 10.0 mi North 4.6 mph - N/A   Overcast
5:15 PM 51.8 °F - 39.2 °F 62% 30.09 in 10.0 mi NNE 3.5 mph - N/A   Overcast
5:35 PM 51.8 °F - 39.2 °F 62% 30.08 in 10.0 mi NE 3.5 mph - N/A   Overcast
5:55 PM 51.8 °F - 41.0 °F 67% 30.09 in 10.0 mi North 5.8 mph - N/A   Overcast
6:15 PM 50.0 °F - 39.2 °F 66% 30.09 in 10.0 mi NNE 5.8 mph - N/A   Overcast
6:35 PM 50.0 °F - 39.2 °F 66% 30.09 in 10.0 mi NNE 4.6 mph - N/A   Overcast
6:55 PM 50.0 °F - 39.2 °F 66% 30.09 in 10.0 mi NE 3.5 mph - N/A   Overcast
7:15 PM 48.2 °F - 39.2 °F 71% 30.09 in 10.0 mi NNE 4.6 mph - N/A   Overcast
7:35 PM 50.0 °F - 39.2 °F 66% 30.08 in 10.0 mi ENE 3.5 mph - N/A   Overcast
7:55 PM 50.0 °F - 39.2 °F 66% 30.09 in 10.0 mi Calm Calm - N/A   Overcast
8:15 PM 48.2 °F - 41.0 °F 76% 30.10 in 10.0 mi North 4.6 mph - N/A   Overcast
8:35 PM 48.2 °F - 39.2 °F 71% 30.10 in 10.0 mi NNE 5.8 mph - N/A   Overcast
8:55 PM 48.2 °F - 39.2 °F 71% 30.10 in 10.0 mi NE 5.8 mph - N/A   Overcast
9:15 PM 50.0 °F - 39.2 °F 66% 30.09 in 10.0 mi NNE 4.6 mph - N/A   Overcast
9:35 PM 50.0 °F - 39.2 °F 66% 30.08 in 10.0 mi NE 4.6 mph - N/A   Overcast
9:55 PM 50.0 °F - 39.2 °F 66% 30.07 in 10.0 mi Calm Calm - N/A   Overcast
10:15 PM 50.0 °F - 39.2 °F 66% 30.07 in 10.0 mi NE 3.5 mph - N/A   Overcast
10:35 PM 50.0 °F - 39.2 °F 66% 30.06 in 10.0 mi ENE 3.5 mph - N/A   Overcast
10:55 PM 50.0 °F - 39.2 °F 66% 30.06 in 10.0 mi ENE 3.5 mph - N/A   Overcast
11:15 PM 48.2 °F - 39.2 °F 71% 30.05 in 10.0 mi Calm Calm - N/A   Overcast
11:35 PM 48.2 °F - 41.0 °F 76% 30.04 in 10.0 mi Calm Calm - N/A   Overcast
11:55 PM 50.0 °F - 39.2 °F 66% 30.04 in 10.0 mi Calm Calm - N/A   Mostly Cloudy